This is the latest recevied weather packets stored in our database for station/object K8WEH. If no packets are shown the sender has not sent any weather packets the latest 10 day(s).
| Time | Temp. | Humidity | Pressure | Rain* | Wind** | Luminosity | Snow |
|---|---|---|---|---|---|---|---|
| 1777372510 | 14.44° C | 37% | 1012.6 hPa | 0 mm | - | - | - |
| 1777372210 | 14.44° C | 37% | 1012.7 hPa | 0 mm | - | - | - |
| 1777371910 | 14.44° C | 37% | 1012.6 hPa | 0 mm | - | - | - |
| 1777371611 | 14.44° C | 37% | 1012.4 hPa | 0 mm | - | - | - |
| 1777371310 | 14.44° C | 37% | 1012.3 hPa | 0 mm | - | - | - |
| 1777371011 | 14.44° C | 37% | 1012.3 hPa | 0 mm | - | - | - |
| 1777370708 | 14.44° C | 37% | 1012.1 hPa | 0 mm | - | - | - |
| 1777370408 | 14.44° C | 37% | 1011.9 hPa | 0 mm | - | - | - |
| 1777370109 | 14.44° C | 37% | 1011.8 hPa | 0 mm | - | - | - |
| 1777369808 | 14.44° C | 37% | 1011.8 hPa | 0 mm | - | - | - |
| 1777369507 | 14.44° C | 37% | 1011.7 hPa | 0 mm | - | - | - |
| 1777369208 | 14.44° C | 37% | 1011.8 hPa | 0 mm | - | - | - |
| 1777368906 | 13.89° C | 38% | 1011.6 hPa | 0.25 mm | - | - | - |
| 1777368609 | 13.89° C | 38% | 1011.3 hPa | 0.25 mm | - | - | - |
| 1777368306 | 13.89° C | 38% | 1011.5 hPa | 0.25 mm | - | - | - |
| 1777368006 | 13.89° C | 38% | 1011.4 hPa | 0.51 mm | - | - | - |
| 1777367711 | 13.89° C | 38% | 1010.8 hPa | 0.51 mm | - | - | - |
| 1777367406 | 13.89° C | 39% | 1011.2 hPa | 0.51 mm | - | - | - |
| 1777367107 | 13.89° C | 39% | 1011.4 hPa | 0.76 mm | - | - | - |
| 1777366806 | 13.89° C | 39% | 1011.5 hPa | 1.02 mm | - | - | - |
| 1777366504 | 13.89° C | 39% | 1011.5 hPa | 1.27 mm | - | - | - |
| 1777366204 | 13.89° C | 39% | 1011 hPa | 1.27 mm | - | - | - |
| 1777365910 | 13.89° C | 39% | 1010.6 hPa | 1.78 mm | - | - | - |
| 1777365604 | 13.89° C | 39% | 1010.2 hPa | 2.03 mm | - | - | - |
| 1777365304 | 13.89° C | 39% | 1009.7 hPa | 2.54 mm | - | - | - |
* Rain latest hour (hover to see other rain measurements)
** Current wind speed in m/s (hover to see current wind gust speed)